Weather History for KRRT - December, 2012

Change the Weather History Date:

Thursday, December 13, 2012

  Actual Average Record
Temperature  
Mean Temperature 12 °F -  
Max Temperature 17 °F 18 °F 44 °F (2002)
Min Temperature 6 °F 0 °F -28 °F (1989)
Degree Days  
Heating Degree Days 54    
Moisture  
Dew Point 6 °F    
Average Humidity 82    
Maximum Humidity 92    
Minimum Humidity 79    
Precipitation  
Precipitation 0.00 in - - ()
Sea Level Pressure  
Sea Level Pressure 30.06 in    
Wind  
Wind Speed 3 mph (WNW)    
Max Wind Speed 6 mph    
Max Gust Speed -    
Visibility 7 miles    
Events Snow    
Averages and records for this station are not official NWS values.
T = Trace of Precipitation, MM = Missing Value Source: NWS Daily Summary

Daily Weather History Graph

Daily Weather History Graph

Search for Another Location

Airport or City:

Trip Planner

Search our weather history database for the weather conditions in past years. The results will help you decide how hot, cold, wet, or windy it might be!

Date:

Astronomy

Dec. 13, 2012 Rise Set
Actual Time 8:07 AM CST 4:24 PM CST
Civil Twilight 7:30 AM CST 5:01 PM CST
Nautical Twilight 6:49 AM CST 5:41 PM CST
Astronomical Twilight 6:11 AM CST 6:20 PM CST
Moon 8:14 AM CST (12/13) 5:10 PM CST (12/13)
Length of Visible Light 9h 31m
Length of Day
8h 16m
New Moon, 0% of the Moon is Illuminated
Dec 13
New Moon
Dec 19
First Quarter
Dec 28
Full
Jan 4
Last Quarter
Jan 11
New

Hourly Weather History & Observations

Time (CST) Temp. Windchill Dew Point Humidity Pressure Visibility Wind Dir Wind Speed Gust Speed Precip Events Conditions
12:14 AM 10.4 °F 0.8 °F 6.8 °F 85% 29.97 in 10.0 mi NW 5.8 mph - N/A   Overcast
12:34 AM 10.4 °F 2.2 °F 6.8 °F 85% 29.97 in 10.0 mi NW 4.6 mph - N/A Snow Light Snow
12:54 AM 10.4 °F - 6.8 °F 85% 29.98 in 10.0 mi Calm Calm - N/A Snow Light Snow
1:14 AM 10.4 °F 4.0 °F 6.8 °F 85% 29.98 in 10.0 mi NNW 3.5 mph - N/A   Overcast
1:34 AM 10.4 °F 4.0 °F 6.8 °F 85% 29.99 in 10.0 mi NNW 3.5 mph - N/A Snow Light Snow
1:54 AM 10.4 °F 2.2 °F 6.8 °F 85% 29.99 in 7.0 mi NW 4.6 mph - N/A Snow Light Snow
2:14 AM 10.4 °F 4.0 °F 6.8 °F 85% 30.00 in 10.0 mi NW 3.5 mph - N/A Snow Light Snow
2:34 AM 8.6 °F 0.1 °F 6.8 °F 92% 30.01 in 7.0 mi WNW 4.6 mph - N/A Snow Light Snow
2:54 AM 8.6 °F 2.0 °F 6.8 °F 92% 30.02 in 10.0 mi NW 3.5 mph - N/A Snow Light Snow
3:14 AM 8.6 °F 0.1 °F 5.0 °F 85% 30.02 in 10.0 mi NW 4.6 mph - N/A   Overcast
3:34 AM 8.6 °F 2.0 °F 5.0 °F 85% 30.02 in 10.0 mi NNW 3.5 mph - N/A   Overcast
3:54 AM 8.6 °F 0.1 °F 5.0 °F 85% 30.03 in 10.0 mi NW 4.6 mph - N/A Snow Light Snow
4:14 AM 8.6 °F 0.1 °F 5.0 °F 85% 30.03 in 10.0 mi NW 4.6 mph - N/A Snow Light Snow
4:34 AM 8.6 °F 0.1 °F 5.0 °F 85% 30.03 in 7.0 mi NW 4.6 mph - N/A Snow Light Snow
4:54 AM 8.6 °F 0.1 °F 5.0 °F 85% 30.03 in 10.0 mi NNW 4.6 mph - N/A Snow Light Snow
5:14 AM 8.6 °F - 5.0 °F 85% 30.04 in 7.0 mi Calm Calm - N/A Snow Light Snow
5:34 AM 8.6 °F 2.0 °F 5.0 °F 85% 30.04 in 10.0 mi NNW 3.5 mph - N/A Snow Light Snow
5:53 AM 8.6 °F -1.3 °F 3.2 °F 79% 30.05 in 10.0 mi NW 5.8 mph - N/A   Overcast
6:14 AM 8.6 °F 2.0 °F 3.2 °F 79% 30.05 in 10.0 mi WNW 3.5 mph - N/A Snow Light Snow
6:34 AM 8.6 °F 2.0 °F 3.2 °F 79% 30.05 in 10.0 mi WNW 3.5 mph - N/A Snow Light Snow
6:54 AM 8.6 °F -1.3 °F 3.2 °F 79% 30.06 in 10.0 mi NW 5.8 mph - N/A   Overcast
7:14 AM 8.6 °F 0.1 °F 3.2 °F 79% 30.06 in 7.0 mi NW 4.6 mph - N/A Snow Light Snow
7:34 AM 8.6 °F - 3.2 °F 79% 30.07 in 10.0 mi Calm Calm - N/A Snow Light Snow
7:54 AM 8.6 °F - 3.2 °F 79% 30.07 in 7.0 mi Calm Calm - N/A Snow Light Snow
8:14 AM 8.6 °F - 3.2 °F 79% 30.07 in 2.5 mi Calm Calm - N/A Snow Light Snow
8:34 AM 8.6 °F - 3.2 °F 79% 30.08 in 7.0 mi Calm Calm - N/A   Overcast
8:54 AM 6.8 °F -0.1 °F 3.2 °F 85% 30.08 in 3.0 mi NW 3.5 mph - N/A Snow Light Snow
9:14 AM 6.8 °F - 3.2 °F 85% 30.08 in 2.5 mi Calm Calm - N/A Snow Light Snow
9:34 AM 6.8 °F - 3.2 °F 85% 30.08 in 2.0 mi Calm Calm - N/A Snow Light Snow
9:54 AM 8.6 °F - 3.2 °F 79% 30.09 in 2.0 mi Calm Calm - N/A Snow Light Snow
10:14 AM 8.6 °F - 3.2 °F 79% 30.09 in 2.0 mi Calm Calm - N/A Snow Light Snow
10:34 AM 8.6 °F - 3.2 °F 79% 30.10 in 1.0 mi Calm Calm - N/A Snow Light Snow
10:54 AM 8.6 °F - 3.2 °F 79% 30.10 in 1.8 mi Calm Calm - N/A Snow Light Snow
11:14 AM 8.6 °F - 3.2 °F 79% 30.08 in 1.8 mi Calm Calm - N/A Snow Light Snow
11:34 AM 8.6 °F - 3.2 °F 79% 30.09 in 1.8 mi Calm Calm - N/A Snow Light Snow
11:54 AM 8.6 °F - 5.0 °F 85% 30.09 in 4.0 mi Calm Calm - N/A Snow Light Snow
12:14 PM 8.6 °F -1.3 °F 5.0 °F 85% 30.09 in 10.0 mi SSE 5.8 mph - N/A   Overcast
12:34 PM 8.6 °F 0.1 °F 5.0 °F 85% 30.09 in 5.0 mi SSE 4.6 mph - N/A Snow Light Snow
12:54 PM 10.4 °F - 5.0 °F 79% 30.09 in 5.0 mi Calm Calm - N/A Snow Light Snow
1:14 PM 10.4 °F - 5.0 °F 79% 30.08 in 5.0 mi Calm Calm - N/A Snow Light Snow
1:34 PM 10.4 °F 4.0 °F 6.8 °F 85% 30.08 in 4.0 mi SSE 3.5 mph - N/A Snow Light Snow
1:54 PM 12.2 °F 6.1 °F 6.8 °F 79% 30.08 in 7.0 mi South 3.5 mph - N/A Snow Light Snow
2:14 PM 12.2 °F 4.3 °F 6.8 °F 79% 30.08 in 5.0 mi SW 4.6 mph - N/A Snow Light Snow
2:34 PM 12.2 °F - 6.8 °F 79% 30.07 in 3.0 mi Calm Calm - N/A Snow Light Snow
2:54 PM 12.2 °F - 6.8 °F 79% 30.07 in 4.0 mi Calm Calm - N/A Snow Light Snow
3:14 PM 12.2 °F - 6.8 °F 79% 30.07 in 2.5 mi Calm Calm - N/A Snow Light Snow
3:34 PM 12.2 °F - 6.8 °F 79% 30.07 in 3.0 mi Calm Calm - N/A Snow Light Snow
3:54 PM 12.2 °F - 6.8 °F 79% 30.08 in 3.0 mi Calm Calm - N/A Snow Light Snow
4:14 PM 12.2 °F - 6.8 °F 79% 30.08 in 1.8 mi Calm Calm - N/A Snow Light Snow
4:34 PM 12.2 °F - 6.8 °F 79% 30.08 in 1.5 mi Calm Calm - N/A Snow Light Snow
7:14 PM 12.2 °F - 8.6 °F 85% 30.07 in 10.0 mi Calm Calm - N/A   Overcast
7:34 PM 12.2 °F - 8.6 °F 85% 30.07 in 10.0 mi Calm Calm - N/A   Overcast
7:54 PM 12.2 °F - 8.6 °F 85% 30.07 in 10.0 mi Calm Calm - N/A   Overcast
8:14 PM 12.2 °F 4.3 °F 8.6 °F 85% 30.07 in 10.0 mi SE 4.6 mph - N/A   Overcast
8:34 PM 12.2 °F 4.3 °F 8.6 °F 85% 30.06 in 10.0 mi ESE 4.6 mph - N/A   Overcast
8:54 PM 12.2 °F 6.1 °F 8.6 °F 85% 30.06 in 10.0 mi ESE 3.5 mph - N/A   Overcast
9:14 PM 12.2 °F - 8.6 °F 85% 30.07 in 10.0 mi Calm Calm - N/A   Overcast
9:34 PM 14.0 °F - 8.6 °F 79% 30.06 in 10.0 mi Calm Calm - N/A   Overcast
9:54 PM 14.0 °F 5.1 °F 10.4 °F 86% 30.06 in 10.0 mi SSE 5.8 mph - N/A   Overcast
10:14 PM 14.0 °F 8.2 °F 10.4 °F 86% 30.06 in 10.0 mi SSE 3.5 mph - N/A   Overcast
10:34 PM 15.8 °F 10.2 °F 10.4 °F 79% 30.06 in 10.0 mi SSE 3.5 mph - N/A   Overcast
10:54 PM 15.8 °F - 12.2 °F 86% 30.06 in 10.0 mi Calm Calm - N/A   Overcast
11:14 PM 17.6 °F 9.3 °F 12.2 °F 79% 30.06 in 10.0 mi South 5.8 mph - N/A   Overcast
11:34 PM 17.6 °F 12.3 °F 12.2 °F 79% 30.06 in 10.0 mi South 3.5 mph - N/A   Overcast
11:54 PM 17.6 °F - 12.2 °F 79% 30.06 in 10.0 mi Calm Calm - N/A   Overcast